Hourly Weather Narysh

Today, 4 August, Tuesday

Time Temperature Precipitation Wind Pressure Humidity
00:00 +22°C° 0 mm 3 mps 760 mmHg 49%
01:00 +22°C° 0 mm 3 mps 760 mmHg 51%
02:00 +21°C° 0 mm 3 mps 760 mmHg 53%
03:00 +21°C° 0 mm 3 mps 760 mmHg 56%
04:00 +21°C° 0 mm 3 mps 760 mmHg 56%
05:00 +22°C° 0 mm 3 mps 760 mmHg 56%
06:00 +23°C° 0 mm 2 mps 760 mmHg 56%
07:00 +25°C° 0 mm 2 mps 760 mmHg 49%
08:00 +27°C° 0 mm 2 mps 760 mmHg 41%
09:00 +29°C° 0 mm 2 mps 760 mmHg 34%
10:00 +30°C° 0 mm 3 mps 760 mmHg 31%
11:00 +31°C° 0 mm 3 mps 760 mmHg 28%
12:00 +33°C° 0 mm 4 mps 759 mmHg 25%
13:00 +33°C° 0 mm 4 mps 759 mmHg 24%
14:00 +34°C° 0 mm 4 mps 759 mmHg 23%
15:00 +34°C° 0 mm 4 mps 759 mmHg 22%
16:00 +33°C° 0 mm 3 mps 759 mmHg 26%
17:00 +31°C° 0 mm 3 mps 758 mmHg 29%
18:00 +30°C° 0 mm 2 mps 758 mmHg 32%
19:00 +28°C° 0 mm 2 mps 758 mmHg 38%
20:00 +26°C° 0 mm 2 mps 758 mmHg 44%
21:00 +23°C° 0 mm 2 mps 758 mmHg 49%
22:00 +23°C° 0 mm 2 mps 758 mmHg 49%
23:00 +23°C° 0 mm 2 mps 758 mmHg 49%

Tomorrow, 5 August, Wednesday

Time Temperature Precipitation Wind Pressure Humidity
00:00 +22°C° 0 mm 3 mps 757 mmHg 49%
01:00 +21°C° 0 mm 3 mps 757 mmHg 48%
02:00 +21°C° 0 mm 3 mps 757 mmHg 48%
03:00 +21°C° 0 mm 3 mps 757 mmHg 48%
04:00 +21°C° 0 mm 4 mps 757 mmHg 48%
05:00 +21°C° 0 mm 4 mps 757 mmHg 49%
06:00 +21°C° 0 mm 4 mps 757 mmHg 49%
07:00 +23°C° 0 mm 4 mps 757 mmHg 44%
08:00 +26°C° 0 mm 4 mps 757 mmHg 39%
09:00 +28°C° 0 mm 5 mps 757 mmHg 34%
10:00 +29°C° 0 mm 5 mps 757 mmHg 32%
11:00 +30°C° 0 mm 6 mps 757 mmHg 30%
12:00 +32°C° 0 mm 7 mps 756 mmHg 28%
13:00 +32°C° 0 mm 7 mps 756 mmHg 27%
14:00 +33°C° 0 mm 7 mps 756 mmHg 26%
15:00 +33°C° 0 mm 7 mps 756 mmHg 26%
16:00 +32°C° 0 mm 6 mps 756 mmHg 29%
17:00 +30°C° 0 mm 5 mps 756 mmHg 33%
18:00 +29°C° 0 mm 5 mps 757 mmHg 36%
19:00 +28°C° 0 mm 4 mps 757 mmHg 40%
20:00 +27°C° 0 mm 3 mps 757 mmHg 45%
21:00 +25°C° 0 mm 2 mps 757 mmHg 49%
22:00 +25°C° 0 mm 3 mps 757 mmHg 50%
23:00 +25°C° 0 mm 3 mps 757 mmHg 52%

Day after tomorrow, 6 August, Thursday

Time Temperature Precipitation Wind Pressure Humidity
00:00 +24°C° 0 mm 3 mps 757 mmHg 53%
01:00 +23°C° 0 mm 4 mps 757 mmHg 55%
02:00 +22°C° 0 mm 4 mps 757 mmHg 57%
03:00 +22°C° 0 mm 4 mps 757 mmHg 59%
04:00 +22°C° 0 mm 5 mps 758 mmHg 58%
05:00 +22°C° 0 mm 5 mps 758 mmHg 57%
06:00 +22°C° 0 mm 5 mps 758 mmHg 55%
07:00 +25°C° 0 mm 5 mps 758 mmHg 50%
08:00 +27°C° 0 mm 5 mps 759 mmHg 46%
09:00 +29°C° 0 mm 5 mps 759 mmHg 41%
10:00 +30°C° 0 mm 5 mps 759 mmHg 38%
11:00 +32°C° 0 mm 5 mps 759 mmHg 34%
12:00 +33°C° 0 mm 4 mps 759 mmHg 31%
13:00 +34°C° 0 mm 5 mps 758 mmHg 29%
14:00 +34°C° 0 mm 5 mps 758 mmHg 27%
15:00 +35°C° 0 mm 5 mps 758 mmHg 25%
16:00 +35°C° 0 mm 4 mps 758 mmHg 27%
17:00 +34°C° 0 mm 4 mps 758 mmHg 28%
18:00 +33°C° 0 mm 3 mps 758 mmHg 30%
19:00 +31°C° 0 mm 3 mps 758 mmHg 34%
20:00 +29°C° 0 mm 3 mps 759 mmHg 38%
21:00 +27°C° 0 mm 3 mps 759 mmHg 42%
22:00 +26°C° 0 mm 4 mps 759 mmHg 43%
23:00 +26°C° 0 mm 4 mps 759 mmHg 44%

7 August, Friday

Time Temperature Precipitation Wind Pressure Humidity
00:00 +26°C° 0 mm 5 mps 759 mmHg 44%
01:00 +25°C° 0.1 mm 4 mps 758 mmHg 46%
02:00 +25°C° 0.1 mm 4 mps 758 mmHg 47%
03:00 +23°C° 0.1 mm 4 mps 758 mmHg 49%
04:00 +25°C° 0 mm 4 mps 758 mmHg 48%
05:00 +25°C° 0 mm 4 mps 758 mmHg 47%
06:00 +25°C° 0 mm 5 mps 758 mmHg 45%
07:00 +28°C° 0 mm 5 mps 758 mmHg 41%
08:00 +30°C° 0 mm 5 mps 758 mmHg 37%
09:00 +33°C° 0 mm 6 mps 758 mmHg 33%
10:00 +35°C° 0 mm 6 mps 758 mmHg 31%
11:00 +36°C° 0 mm 5 mps 758 mmHg 29%
12:00 +37°C° 0 mm 5 mps 758 mmHg 27%
13:00 +37°C° 0 mm 4 mps 758 mmHg 27%
14:00 +37°C° 0 mm 4 mps 758 mmHg 28%
15:00 +37°C° 0 mm 4 mps 757 mmHg 28%
16:00 +36°C° 0 mm 3 mps 757 mmHg 30%
17:00 +35°C° 0 mm 3 mps 757 mmHg 32%
18:00 +35°C° 0 mm 2 mps 757 mmHg 34%
19:00 +32°C° 0 mm 2 mps 757 mmHg 38%
20:00 +30°C° 0 mm 2 mps 757 mmHg 43%
21:00 +28°C° 0 mm 2 mps 758 mmHg 48%
22:00 +27°C° 0 mm 2 mps 757 mmHg 48%
23:00 +27°C° 0 mm 2 mps 757 mmHg 49%

8 August, Saturday

Time Temperature Precipitation Wind Pressure Humidity
00:00 +27°C° 0 mm 2 mps 757 mmHg 49%
01:00 +26°C° 0 mm 2 mps 757 mmHg 49%
02:00 +26°C° 0 mm 2 mps 757 mmHg 50%
03:00 +26°C° 0 mm 2 mps 756 mmHg 50%
04:00 +26°C° 0 mm 2 mps 756 mmHg 50%
05:00 +26°C° 0 mm 2 mps 756 mmHg 50%
06:00 +26°C° 0 mm 2 mps 756 mmHg 49%
07:00 +29°C° 0 mm 2 mps 756 mmHg 43%
08:00 +31°C° 0 mm 2 mps 756 mmHg 38%
09:00 +35°C° 0 mm 3 mps 756 mmHg 32%
10:00 +36°C° 0 mm 2 mps 756 mmHg 28%
11:00 +38°C° 0 mm 2 mps 756 mmHg 25%
12:00 +39°C° 0 mm 2 mps 755 mmHg 22%
13:00 +39°C° 0 mm 2 mps 755 mmHg 22%
14:00 +39°C° 0 mm 3 mps 755 mmHg 22%
15:00 +39°C° 0 mm 3 mps 754 mmHg 22%
16:00 +37°C° 0 mm 4 mps 754 mmHg 25%
17:00 +36°C° 0 mm 5 mps 754 mmHg 29%
18:00 +34°C° 0 mm 6 mps 754 mmHg 32%
19:00 +33°C° 0 mm 5 mps 754 mmHg 37%
20:00 +30°C° 0 mm 5 mps 754 mmHg 41%
21:00 +28°C° 0 mm 4 mps 754 mmHg 46%
22:00 +28°C° 0 mm 4 mps 754 mmHg 45%
23:00 +28°C° 0 mm 3 mps 754 mmHg 45%

9 August, Sunday

Time Temperature Precipitation Wind Pressure Humidity
00:00 +27°C° 0 mm 3 mps 754 mmHg 45%
01:00 +27°C° 0 mm 3 mps 754 mmHg 45%
02:00 +27°C° 0 mm 2 mps 753 mmHg 45%
03:00 +26°C° 0 mm 2 mps 753 mmHg 45%
04:00 +27°C° 0 mm 2 mps 753 mmHg 45%
05:00 +27°C° 0 mm 2 mps 753 mmHg 46%
06:00 +27°C° 0 mm 2 mps 753 mmHg 46%
07:00 +30°C° 0 mm 4 mps 753 mmHg 40%
08:00 +34°C° 0 mm 5 mps 753 mmHg 33%
09:00 +38°C° 0 mm 6 mps 753 mmHg 27%
10:00 +38°C° 0 mm 7 mps 753 mmHg 26%
11:00 +39°C° 0 mm 8 mps 753 mmHg 25%
12:00 +39°C° 0 mm 9 mps 753 mmHg 24%
13:00 +39°C° 0 mm 9 mps 752 mmHg 25%
14:00 +38°C° 0 mm 9 mps 752 mmHg 27%
15:00 +38°C° 0 mm 9 mps 752 mmHg 28%
16:00 +37°C° 0 mm 9 mps 752 mmHg 32%
17:00 +34°C° 0 mm 8 mps 752 mmHg 36%
18:00 +33°C° 0 mm 8 mps 752 mmHg 40%
19:00 +30°C° 0 mm 7 mps 752 mmHg 50%
20:00 +28°C° 0 mm 7 mps 752 mmHg 60%
21:00 +27°C° 0 mm 6 mps 753 mmHg 70%
22:00 +26°C° 0 mm 6 mps 753 mmHg 72%
23:00 +26°C° 0 mm 5 mps 752 mmHg 74%
Show more